sat.trackr.live / text

‹ back to catalog

STARLINK-3115

NORAD 49447 · 2021-104AR

PAYLOAD ACTIVE UNKNOWN

§ Identity

Operator
Country
US
Launch date
2021-11-13
Launch site
AFETR
Launch vehicle
Mass (kg)
RCS (m²)

Purposes: comms

External: N2YO · Heavens-Above · Gunter

§ Orbital elements

Epoch: 2026-09-03T03:02:01.444704Z

Period
94.01 min
Inclination
53.1598°
Eccentricity
0.0001344
Mean motion
15.31700463 rev/d
Perigee alt
469.8 km
Apogee alt
471.7 km
Semi-major
6,848.9 km
B*
2.9108e-5
RAAN
132.7220°
Arg perigee
98.9563°
Mean anomaly
261.1591°
Rev number
26,569

§ Raw data

STARLINK-31151 49447U 21104AR  26246.12640561  .00000538  00000+0  29108-4 0  99902 49447  53.1598 132.7220 0001344  98.9563 261.1591 15.31700463265693

JSON: /api/v1/satellites/49447 · /tle

For live sub-satellite position, see the globe view (requires WebGL).

§ Visibility from observer

Set your observer location to see the next 7 days of passes ≥ 10°. The values pass through the URL so the page stays shareable.

No JS? Fill the form by hand. The geolocation button needs JavaScript.